sat.trackr.live / text

‹ back to catalog

FENGYUN 2G

NORAD 40367 · 2014-090A

PAYLOAD ACTIVE UNKNOWN

§ Identity

Operator
Country
PRC
Launch date
2014-12-31
Launch site
XICLF
Launch vehicle
Mass (kg)
RCS (m²)
23.11

Purposes: comms, earth_obs

External: N2YO · Heavens-Above · Gunter

§ Orbital elements

Epoch: 2026-05-24T17:56:57.599232Z

Period
1,436.26 min
Inclination
5.5826°
Eccentricity
0.0002791
Mean motion
1.00260302 rev/d
Perigee alt
35,778.0 km
Apogee alt
35,801.6 km
Semi-major
42,168.0 km
B*
0.0000e+0
RAAN
73.0946°
Arg perigee
140.6485°
Mean anomaly
37.1308°
Rev number
4,176

§ Raw data

FENGYUN 2G1 40367U 14090A   26144.74788888 -.00000301  00000+0  00000+0 0  99922 40367   5.5826  73.0946 0002791 140.6485  37.1308  1.00260302 41768

JSON: /api/v1/satellites/40367 · /tle

For live sub-satellite position, see the globe view (requires WebGL).

§ Visibility from observer

Set your observer location to see the next 7 days of passes ≥ 10°. The values pass through the URL so the page stays shareable.

No JS? Fill the form by hand. The geolocation button needs JavaScript.